Location: Angwan Shehu
(11.2514°N, 7.4613°E)
Time: 16:34:42
(UTC+00:00)

Vanguard 1 - Visible Passes

Search period start: 11 April 2021 00:00
Search period end: 21 April 2021 00:00
Orbit: 648 x 3834 km, 34.3° (Epoch: 10 April)

Date Brightness Start Highest point End Pass type
(mag) Time Alt. Az. Time Alt. Az. Time Alt. Az.
11 Apr 13.4 18:24:58 10° WNW 18:45:54 37° N 19:02:29 10° ENE visible
11 Apr 12.4 20:55:37 10° NW 21:15:11 52° NNE 21:15:11 52° NNE visible
11 Apr 13.6 23:24:35 10° WNW 23:27:53 17° WNW 23:27:53 17° WNW visible
12 Apr 13.2 18:47:40 10° NW 19:08:58 39° N 19:22:05 18° ENE visible
12 Apr 12.4 21:17:26 10° NW 21:34:47 57° NNW 21:34:47 57° NNW visible
12 Apr 13.8 23:46:52 10° WNW 23:47:29 11° WNW 23:47:29 11° WNW visible
13 Apr 12.9 19:10:04 10° NW 19:31:50 43° NNE 19:41:42 26° ENE visible
13 Apr 12.6 21:39:13 10° NW 21:54:25 54° NW 21:54:25 54° NW visible
14 Apr 12.7 19:32:10 10° NW 19:54:26 49° NNE 20:01:21 37° ENE visible
14 Apr 12.8 22:01:04 10° WNW 22:14:03 45° WNW 22:14:03 45° WNW visible
15 Apr 13.6 17:24:54 10° WNW 17:45:30 38° N 18:04:23 10° ENE visible
15 Apr 12.4 19:54:03 10° NW 20:16:44 57° NNE 20:21:01 50° ENE visible
15 Apr 13.0 22:23:07 10° WNW 22:33:43 36° WNW 22:33:43 36° WNW visible
16 Apr 13.5 17:47:18 10° NW 18:08:38 41° NNE 18:27:04 10° ENE visible
16 Apr 12.2 20:15:49 10° NW 20:38:45 68° NNE 20:40:42 65° ENE visible
16 Apr 13.3 22:45:30 10° WNW 22:53:24 27° WNW 22:53:24 27° WNW visible
17 Apr 13.2 18:09:25 10° NW 18:31:33 45° NNE 18:47:42 15° E visible
17 Apr 12.1 20:37:34 10° NW 21:00:25 82° NNE 21:00:25 82° NNE visible
17 Apr 13.6 23:08:24 10° WNW 23:13:07 18° W 23:13:07 18° W visible
18 Apr 13.0 18:31:18 10° NW 18:54:12 52° NNE 19:07:27 23° E visible
18 Apr 12.2 20:59:24 10° WNW 21:20:09 76° W 21:20:09 76° W visible
18 Apr 13.9 23:32:07 10° W 23:32:52 11° W 23:32:52 11° W visible
19 Apr 12.7 18:53:02 10° NW 19:16:33 60° NNE 19:27:13 32° E visible
19 Apr 12.5 21:21:27 10° WNW 21:39:56 60° W 21:39:56 60° W visible
20 Apr 12.5 19:14:40 10° NW 19:38:37 71° NNE 19:47:01 43° ESE visible
20 Apr 12.8 21:43:50 10° WNW 21:59:45 45° WSW 21:59:45 45° WSW visible
